A/2019 O2

Japanese version
Home page
Updated on April 4, 2021

---------------------------------------------------------------------

* Profile

Discovery Date July 24, 2019
Magnitude 20.5 mag
Discoverer Pan-STARRS 1 telescope (Haleakala)

* Pictures

* Orbital Elements

Epoch 2023 Apr. 6.0 TT = JDT 2460040.5
T 2023 Apr. 7.23425 TT                                  Rudenko
q   9.6827335            (2000.0)            P               Q
z  +0.0172697      Peri.  129.64066     -0.39155295     -0.54010128
 +/-0.0000000      Node    48.26318     -0.76971313     -0.25138327
e   0.8327817      Incl.   93.30726     +0.50421025     -0.80317934
H    9.5
From 135 observations 2019 July 24-2021 Feb. 12, mean residual 0".4.

* Magnitudes Graph

        H = 9.2  G = 0.15

---------------------------------------------------------------------

The orbital elements are published on M.P.E.C. 2021-F20.
The magnitudes graphs are made with Comet for Windows.

---------------------------------------------------------------------

Copyright(C) Seiichi Yoshida (comet@aerith.net). All rights reserved.